Location: *
(38.9555°S, 57.3572°E)
Time: 01:21:11
(UTC+00:00)

Cosmos 1726 Rocket - Pass Details

Date: 15 July 2020
Orbit: 604 x 629 km, 82.5° (Epoch: 06 August)

Event Time Altitude Azimuth Distance (km) Brightness Sun altitude
Rises 15:17:00 0° 353° (N) 2,896 7.2 -24.7°
Reaches altitude 10° 15:19:13 10° 352° (N) 1,994 6.3 -25.1°
Enters shadow 15:22:37 53° 348° (NNW) 775 4.0 -25.8°
